Time,TemperatureF,DewpointF,PressureIn,WindDirection,WindDirectionDegrees,WindSpeedMPH,WindSpeedGustMPH,Humidity,HourlyPrecipIn,Conditions,Clouds,dailyrainin,SoftwareType,DateUTC
2013-02-23 00:03:00,26.0,16.6,30.20,WNW,287,0.0,0.0,67,0.00,,CLR,0.00,VWS V14.01,2013-02-23 06:03:00,
2013-02-23 00:08:00,25.7,16.3,30.20,WNW,287,0.0,0.0,67,0.00,,CLR,0.00,VWS V14.01,2013-02-23 06:08:00,
2013-02-23 00:13:00,25.7,16.6,30.20,WNW,287,0.0,1.0,68,0.00,,CLR,0.00,VWS V14.01,2013-02-23 06:13:00,
2013-02-23 00:18:00,25.6,16.9,30.19,WNW,287,2.0,2.0,69,0.00,,CLR,0.00,VWS V14.01,2013-02-23 06:18:00,
2013-02-23 00:24:00,25.6,16.9,30.19,WNW,288,0.0,2.0,69,0.00,,CLR,0.00,VWS V14.01,2013-02-23 06:24:00,
2013-02-23 00:29:00,25.6,17.2,30.19,WNW,287,0.0,2.0,70,0.00,,CLR,0.00,VWS V14.01,2013-02-23 06:29:00,
2013-02-23 00:34:00,25.4,17.0,30.19,WNW,288,0.0,2.0,70,0.00,,CLR,0.00,VWS V14.01,2013-02-23 06:34:00,
2013-02-23 00:39:00,25.3,16.9,30.19,WNW,288,0.0,2.0,70,0.00,,CLR,0.00,VWS V14.01,2013-02-23 06:39:00,
2013-02-23 00:44:00,25.3,17.2,30.19,WNW,285,0.0,5.0,71,0.00,,CLR,0.00,VWS V14.01,2013-02-23 06:44:00,
2013-02-23 00:49:00,25.3,17.2,30.19,WNW,287,3.0,5.0,71,0.00,,CLR,0.00,VWS V14.01,2013-02-23 06:49:00,
2013-02-23 00:54:00,25.1,17.4,30.19,WNW,288,0.0,5.0,72,0.00,,CLR,0.00,VWS V14.01,2013-02-23 06:54:00,
2013-02-23 00:59:00,25.1,17.4,30.19,WNW,289,0.0,5.0,72,0.00,,CLR,0.00,VWS V14.01,2013-02-23 06:59:00,
2013-02-23 01:04:00,25.0,16.9,30.18,WNW,289,0.0,1.0,71,0.00,,CLR,0.00,VWS V14.01,2013-02-23 07:04:00,
2013-02-23 01:09:00,24.8,17.4,30.18,WNW,288,0.0,2.0,73,0.00,,CLR,0.00,VWS V14.01,2013-02-23 07:09:00,
2013-02-23 01:14:00,24.8,17.4,30.18,WNW,289,0.0,3.0,73,0.00,,CLR,0.00,VWS V14.01,2013-02-23 07:14:00,
2013-02-23 01:19:00,24.7,17.0,30.18,WNW,289,0.0,3.0,72,0.00,,CLR,0.00,VWS V14.01,2013-02-23 07:19:00,
2013-02-23 01:24:00,24.5,16.8,30.18,WNW,289,0.0,3.0,72,0.00,,CLR,0.00,VWS V14.01,2013-02-23 07:24:00,
2013-02-23 01:30:00,24.4,17.0,30.18,WNW,289,0.0,3.0,73,0.00,,CLR,0.00,VWS V14.01,2013-02-23 07:30:00,
2013-02-23 01:35:00,24.4,17.0,30.18,WNW,289,0.0,3.0,73,0.00,,CLR,0.00,VWS V14.01,2013-02-23 07:35:00,
2013-02-23 01:40:00,24.4,17.0,30.18,WNW,289,0.0,3.0,73,0.00,,CLR,0.00,VWS V14.01,2013-02-23 07:40:00,
2013-02-23 01:45:00,24.4,17.0,30.16,WNW,289,0.0,3.0,73,0.00,,CLR,0.00,VWS V14.01,2013-02-23 07:45:00,
2013-02-23 01:50:00,24.4,17.0,30.16,WNW,289,0.0,3.0,73,0.00,,CLR,0.00,VWS V14.01,2013-02-23 07:50:00,
2013-02-23 01:55:00,24.4,17.0,30.16,WNW,289,0.0,3.0,73,0.00,,CLR,0.00,VWS V14.01,2013-02-23 07:55:00,
2013-02-23 02:00:00,24.4,17.0,30.17,WNW,289,0.0,3.0,73,0.00,,CLR,0.00,VWS V14.01,2013-02-23 08:00:00,
2013-02-23 02:05:00,24.4,17.0,30.17,WNW,289,0.0,0.0,73,0.00,,CLR,0.00,VWS V14.01,2013-02-23 08:05:00,
2013-02-23 02:10:00,24.4,17.0,30.17,WNW,289,0.0,0.0,73,0.00,,CLR,0.00,VWS V14.01,2013-02-23 08:10:00,
2013-02-23 02:15:00,24.4,17.0,30.16,WNW,289,0.0,0.0,73,0.00,,CLR,0.00,VWS V14.01,2013-02-23 08:15:00,
2013-02-23 02:20:00,24.4,17.0,30.16,WNW,289,0.0,0.0,73,0.00,,CLR,0.00,VWS V14.01,2013-02-23 08:20:00,
2013-02-23 02:25:00,24.4,17.0,30.16,WNW,289,0.0,0.0,73,0.00,,CLR,0.00,VWS V14.01,2013-02-23 08:25:00,
2013-02-23 02:30:00,24.4,17.0,30.16,WNW,289,0.0,0.0,73,0.00,,CLR,0.00,VWS V14.01,2013-02-23 08:30:00,
2013-02-23 02:35:00,24.4,17.0,30.16,WNW,289,0.0,0.0,73,0.00,,CLR,0.00,VWS V14.01,2013-02-23 08:35:00,
2013-02-23 02:40:00,24.4,17.0,30.16,WNW,289,0.0,0.0,73,0.00,,CLR,0.00,VWS V14.01,2013-02-23 08:40:00,
2013-02-23 02:45:00,24.4,17.0,30.15,WNW,289,0.0,0.0,73,0.00,,CLR,0.00,VWS V14.01,2013-02-23 08:45:00,
2013-02-23 02:50:00,24.4,17.0,30.15,WNW,289,0.0,0.0,73,0.00,,CLR,0.00,VWS V14.01,2013-02-23 08:50:00,
2013-02-23 02:55:00,24.4,17.0,30.15,WNW,289,0.0,0.0,73,0.00,,CLR,0.00,VWS V14.01,2013-02-23 08:55:00,
2013-02-23 03:00:00,24.4,17.0,30.15,WNW,289,0.0,0.0,73,0.00,,CLR,0.00,VWS V14.01,2013-02-23 09:00:00,
2013-02-23 03:05:00,24.4,17.0,30.15,WNW,289,0.0,0.0,73,0.00,,CLR,0.00,VWS V14.01,2013-02-23 09:05:00,
2013-02-23 03:10:00,22.7,16.3,30.15,WNW,289,0.0,0.0,76,0.00,,CLR,0.00,VWS V14.01,2013-02-23 09:10:00,
2013-02-23 03:15:00,22.4,15.7,30.16,WNW,289,0.0,0.0,75,0.00,,CLR,0.00,VWS V14.01,2013-02-23 09:15:00,
2013-02-23 03:20:00,22.2,16.1,30.16,WNW,289,0.0,0.0,77,0.00,,CLR,0.00,VWS V14.01,2013-02-23 09:20:00,
2013-02-23 03:25:00,22.2,16.4,30.16,WNW,289,0.0,0.0,78,0.00,,CLR,0.00,VWS V14.01,2013-02-23 09:25:00,
2013-02-23 03:31:00,22.4,16.9,30.16,WNW,289,0.0,2.0,79,0.00,,CLR,0.00,VWS V14.01,2013-02-23 09:31:00,
2013-02-23 03:36:00,22.5,17.0,30.16,WNW,289,0.0,2.0,79,0.00,,CLR,0.00,VWS V14.01,2013-02-23 09:36:00,
2013-02-23 03:41:00,22.4,16.9,30.16,WNW,289,0.0,2.0,79,0.00,,CLR,0.00,VWS V14.01,2013-02-23 09:41:00,
2013-02-23 03:46:00,22.4,16.9,30.13,WNW,291,1.0,2.0,79,0.00,,CLR,0.00,VWS V14.01,2013-02-23 09:46:00,
2013-02-23 03:51:00,22.2,16.7,30.13,WNW,291,1.0,2.0,79,0.00,,CLR,0.00,VWS V14.01,2013-02-23 09:51:00,
2013-02-23 03:56:00,22.2,16.7,30.13,WNW,296,0.0,2.0,79,0.00,,CLR,0.00,VWS V14.01,2013-02-23 09:56:00,
2013-02-23 04:00:00,21.4,15.6,30.12,North,349,0.0,5.0,78,0.00,,OVC041CB,0.00,VWS V14.01,2013-02-23 10:00:00,
2013-02-23 04:01:00,22.2,16.7,30.12,NNW,329,2.0,2.0,79,0.00,,CLR,0.00,VWS V14.01,2013-02-23 10:01:00,
2013-02-23 04:06:00,22.1,16.9,30.12,North,349,2.0,5.0,80,0.00,,CLR,0.00,VWS V14.01,2013-02-23 10:06:00,
2013-02-23 04:11:00,22.1,16.9,30.12,NNW,346,1.0,5.0,80,0.00,,CLR,0.00,VWS V14.01,2013-02-23 10:11:00,
2013-02-23 04:16:00,21.9,16.4,30.13,NNW,336,0.0,5.0,79,0.00,,CLR,0.00,VWS V14.01,2013-02-23 10:16:00,
2013-02-23 04:21:00,21.9,16.4,30.13,North,352,2.0,5.0,79,0.00,,CLR,0.00,VWS V14.01,2013-02-23 10:21:00,
2013-02-23 04:26:00,21.8,16.3,30.13,North,352,0.0,5.0,79,0.00,,CLR,0.00,VWS V14.01,2013-02-23 10:26:00,
2013-02-23 04:31:00,21.8,16.3,30.12,North,349,1.0,5.0,79,0.00,,CLR,0.00,VWS V14.01,2013-02-23 10:31:00,
2013-02-23 04:36:00,21.8,16.3,30.12,North,349,0.0,5.0,79,0.00,,CLR,0.00,VWS V14.01,2013-02-23 10:36:00,
2013-02-23 04:41:00,21.8,16.0,30.12,North,349,0.0,5.0,78,0.00,,CLR,0.00,VWS V14.01,2013-02-23 10:41:00,
2013-02-23 04:46:00,21.6,15.8,30.13,North,349,0.0,5.0,78,0.00,,CLR,0.00,VWS V14.01,2013-02-23 10:46:00,
2013-02-23 04:51:00,21.6,15.8,30.13,North,349,0.0,5.0,78,0.00,,CLR,0.00,VWS V14.01,2013-02-23 10:51:00,
2013-02-23 04:56:00,21.4,15.6,30.13,North,349,0.0,5.0,78,0.00,,CLR,0.00,VWS V14.01,2013-02-23 10:56:00,
2013-02-23 05:01:00,21.4,15.6,30.12,North,349,0.0,2.0,78,0.00,,CLR,0.00,VWS V14.01,2013-02-23 11:01:00,
2013-02-23 05:06:00,21.3,15.5,30.12,North,349,0.0,2.0,78,0.00,,CLR,0.00,VWS V14.01,2013-02-23 11:06:00,
2013-02-23 05:11:00,21.3,15.5,30.12,North,349,0.0,2.0,78,0.00,,CLR,0.00,VWS V14.01,2013-02-23 11:11:00,
2013-02-23 05:16:00,21.3,15.5,30.13,North,349,0.0,2.0,78,0.00,,CLR,0.00,VWS V14.01,2013-02-23 11:16:00,
2013-02-23 05:21:00,21.3,15.5,30.13,NNW,347,0.0,5.0,78,0.00,,CLR,0.00,VWS V14.01,2013-02-23 11:21:00,
2013-02-23 05:27:00,21.3,15.5,30.13,NNW,347,0.0,5.0,78,0.00,,CLR,0.00,VWS V14.01,2013-02-23 11:27:00,
2013-02-23 05:32:00,21.3,15.5,30.12,NNW,347,0.0,5.0,78,0.00,,CLR,0.00,VWS V14.01,2013-02-23 11:32:00,
2013-02-23 05:37:00,21.3,15.5,30.12,NNW,347,0.0,5.0,78,0.00,,CLR,0.00,VWS V14.01,2013-02-23 11:37:00,
2013-02-23 05:42:00,21.3,15.5,30.12,NNW,347,0.0,5.0,78,0.00,,CLR,0.00,VWS V14.01,2013-02-23 11:42:00,
2013-02-23 05:47:00,21.1,15.3,30.13,NNW,347,0.0,5.0,78,0.00,,CLR,0.00,VWS V14.01,2013-02-23 11:47:00,
2013-02-23 05:52:00,21.0,15.2,30.13,NNW,343,0.0,5.0,78,0.00,,CLR,0.00,VWS V14.01,2013-02-23 11:52:00,
2013-02-23 05:57:00,21.1,15.3,30.13,NNW,343,0.0,5.0,78,0.00,,CLR,0.00,VWS V14.01,2013-02-23 11:57:00,
2013-02-23 06:00:00,20.2,14.7,30.14,NNW,343,0.0,2.0,79,0.00,,OVC041CB,0.00,VWS V14.01,2013-02-23 12:00:00,
2013-02-23 06:02:00,21.0,15.2,30.13,NNW,343,0.0,0.0,78,0.00,,CLR,0.00,VWS V14.01,2013-02-23 12:02:00,
2013-02-23 06:07:00,21.0,15.2,30.13,NNW,343,0.0,0.0,78,0.00,,CLR,0.00,VWS V14.01,2013-02-23 12:07:00,
2013-02-23 06:12:00,21.0,15.5,30.13,NNW,343,0.0,0.0,79,0.00,,CLR,0.00,VWS V14.01,2013-02-23 12:12:00,
2013-02-23 06:17:00,20.8,15.3,30.13,NNW,343,0.0,0.0,79,0.00,,CLR,0.00,VWS V14.01,2013-02-23 12:17:00,
2013-02-23 06:22:00,20.6,15.1,30.13,NNW,343,0.0,0.0,79,0.00,,CLR,0.00,VWS V14.01,2013-02-23 12:22:00,
2013-02-23 06:27:00,20.6,15.1,30.13,NNW,343,0.0,1.0,79,0.00,,CLR,0.00,VWS V14.01,2013-02-23 12:27:00,
2013-02-23 06:32:00,20.5,15.0,30.13,NNW,343,0.0,1.0,79,0.00,,CLR,0.00,VWS V14.01,2013-02-23 12:32:00,
2013-02-23 06:37:00,20.3,14.8,30.13,NNW,343,0.0,2.0,79,0.00,,CLR,0.00,VWS V14.01,2013-02-23 12:37:00,
2013-02-23 06:42:00,20.3,14.8,30.13,NNW,343,0.0,2.0,79,0.00,,CLR,0.00,VWS V14.01,2013-02-23 12:42:00,
2013-02-23 06:47:00,20.2,14.7,30.14,NNW,343,0.0,2.0,79,0.00,,CLR,0.00,VWS V14.01,2013-02-23 12:47:00,
2013-02-23 06:52:00,20.2,14.7,30.14,NNW,343,0.0,2.0,79,0.00,,CLR,0.00,VWS V14.01,2013-02-23 12:52:00,
2013-02-23 06:57:00,20.2,14.7,30.14,NNW,343,0.0,2.0,79,0.00,,CLR,0.00,VWS V14.01,2013-02-23 12:57:00,
2013-02-23 07:00:00,24.1,17.3,30.14,NNW,342,1.0,2.0,75,0.00,,OVC041CB,0.00,VWS V14.01,2013-02-23 13:00:00,
2013-02-23 07:02:00,20.2,14.7,30.14,NNW,343,0.0,0.0,79,0.00,,CLR,0.00,VWS V14.01,2013-02-23 13:02:00,
2013-02-23 07:08:00,20.5,15.3,30.14,NNW,343,0.0,0.0,80,0.00,,CLR,0.00,VWS V14.01,2013-02-23 13:08:00,
2013-02-23 07:13:00,20.3,14.8,30.14,NNW,343,0.0,0.0,79,0.00,,CLR,0.00,VWS V14.01,2013-02-23 13:13:00,
2013-02-23 07:18:00,20.3,14.8,30.14,NNW,343,0.0,0.0,79,0.00,,CLR,0.00,VWS V14.01,2013-02-23 13:18:00,
2013-02-23 07:23:00,20.6,15.1,30.14,NNW,343,0.0,0.0,79,0.00,,CLR,0.00,VWS V14.01,2013-02-23 13:23:00,
2013-02-23 07:28:00,20.8,15.0,30.14,NNW,343,0.0,0.0,78,0.00,,CLR,0.00,VWS V14.01,2013-02-23 13:28:00,
2013-02-23 07:33:00,21.1,15.3,30.14,NNW,342,0.0,2.0,78,0.00,,CLR,0.00,VWS V14.01,2013-02-23 13:33:00,
2013-02-23 07:38:00,21.8,15.7,30.14,NNW,342,0.0,2.0,77,0.00,,CLR,0.00,VWS V14.01,2013-02-23 13:38:00,
2013-02-23 07:43:00,22.5,16.7,30.14,NNW,342,0.0,2.0,78,0.00,,CLR,0.00,VWS V14.01,2013-02-23 13:43:00,
2013-02-23 07:48:00,23.0,16.9,30.13,NNW,342,0.0,2.0,77,0.00,,CLR,0.00,VWS V14.01,2013-02-23 13:48:00,
2013-02-23 07:53:00,23.5,17.4,30.13,NNW,342,0.0,2.0,77,0.00,,CLR,0.00,VWS V14.01,2013-02-23 13:53:00,
2013-02-23 07:58:00,23.9,17.5,30.13,NNW,342,0.0,2.0,76,0.00,,CLR,0.00,VWS V14.01,2013-02-23 13:58:00,
2013-02-23 08:03:00,24.2,17.1,30.14,NNW,342,0.0,1.0,74,0.00,,CLR,0.00,VWS V14.01,2013-02-23 14:03:00,
2013-02-23 08:08:00,24.7,17.6,30.14,NNW,342,0.0,1.0,74,0.00,,CLR,0.00,VWS V14.01,2013-02-23 14:08:00,
2013-02-23 08:13:00,25.0,17.3,30.14,NNW,342,0.0,3.0,72,0.00,,CLR,0.00,VWS V14.01,2013-02-23 14:13:00,
2013-02-23 08:18:00,25.3,17.5,30.14,NNW,344,1.0,3.0,72,0.00,,CLR,0.00,VWS V14.01,2013-02-23 14:18:00,
2013-02-23 08:23:00,25.4,17.3,30.14,North,359,0.0,5.0,71,0.00,,CLR,0.00,VWS V14.01,2013-02-23 14:23:00,
2013-02-23 08:28:00,26.0,17.9,30.14,North,357,0.0,5.0,71,0.00,,CLR,0.00,VWS V14.01,2013-02-23 14:28:00,
2013-02-23 08:33:00,26.6,18.5,30.15,North,354,0.0,5.0,71,0.00,,CLR,0.00,VWS V14.01,2013-02-23 14:33:00,
2013-02-23 08:38:00,26.7,18.2,30.15,North,10,0.0,5.0,70,0.00,,CLR,0.00,VWS V14.01,2013-02-23 14:38:00,
2013-02-23 08:43:00,27.2,18.7,30.15,North,0,2.0,5.0,70,0.00,,CLR,0.00,VWS V14.01,2013-02-23 14:43:00,
2013-02-23 08:49:00,27.2,18.0,30.15,North,0,0.0,5.0,68,0.00,,CLR,0.00,VWS V14.01,2013-02-23 14:49:00,
2013-02-23 08:54:00,27.2,17.4,30.15,ENE,71,1.0,5.0,66,0.00,,CLR,0.00,VWS V14.01,2013-02-23 14:54:00,
2013-02-23 08:59:00,27.2,17.7,30.15,NE,45,5.0,5.0,67,0.00,,CLR,0.00,VWS V14.01,2013-02-23 14:59:00,
2013-02-23 09:04:00,27.0,17.2,30.15,NE,55,2.0,6.0,66,0.00,,CLR,0.00,VWS V14.01,2013-02-23 15:04:00,
2013-02-23 09:09:00,27.3,17.8,30.15,NNE,25,3.0,6.0,67,0.00,,CLR,0.00,VWS V14.01,2013-02-23 15:09:00,
2013-02-23 09:14:00,27.8,18.3,30.15,NE,55,2.0,6.0,67,0.00,,CLR,0.00,VWS V14.01,2013-02-23 15:14:00,
2013-02-23 09:19:00,27.8,16.9,30.14,ENE,75,3.0,6.0,63,0.00,,CLR,0.00,VWS V14.01,2013-02-23 15:19:00,
2013-02-23 09:24:00,27.9,17.3,30.14,East,83,0.0,6.0,64,0.00,,CLR,0.00,VWS V14.01,2013-02-23 15:24:00,
2013-02-23 09:29:00,28.4,17.8,30.15,East,80,3.0,6.0,64,0.00,,CLR,0.00,VWS V14.01,2013-02-23 15:29:00,
2013-02-23 09:35:00,28.8,17.8,30.15,East,85,0.0,6.0,63,0.00,,CLR,0.00,VWS V14.01,2013-02-23 15:35:00,
2013-02-23 09:40:00,29.3,17.9,30.15,East,83,2.0,6.0,62,0.00,,CLR,0.00,VWS V14.01,2013-02-23 15:40:00,
2013-02-23 09:45:00,30.3,18.9,30.14,East,83,1.0,6.0,62,0.00,,CLR,0.00,VWS V14.01,2013-02-23 15:45:00,
2013-02-23 09:50:00,30.6,18.8,30.14,East,99,0.0,6.0,61,0.00,,CLR,0.00,VWS V14.01,2013-02-23 15:50:00,
2013-02-23 09:55:00,30.6,17.6,30.14,ESE,102,0.0,6.0,58,0.00,,CLR,0.00,VWS V14.01,2013-02-23 15:55:00,
2013-02-23 10:00:00,30.0,16.6,30.14,East,97,0.0,6.0,57,0.00,,CLR,0.00,VWS V14.01,2013-02-23 16:00:00,
2013-02-23 10:05:00,30.1,17.5,30.14,East,97,0.0,2.0,59,0.00,,FEW110,0.00,VWS V14.01,2013-02-23 16:05:00,
2013-02-23 10:10:00,30.3,16.9,30.14,East,97,0.0,2.0,57,0.00,,FEW110,0.00,VWS V14.01,2013-02-23 16:10:00,
2013-02-23 10:15:00,31.6,18.5,30.14,West,272,1.0,2.0,58,0.00,,FEW110,0.00,VWS V14.01,2013-02-23 16:15:00,
2013-02-23 10:35:00,32.5,17.3,30.15,SE,130,0.0,2.0,53,0.00,,FEW110,0.00,VWS V14.01,2013-02-23 16:35:00,
2013-02-23 10:40:00,32.7,17.5,30.15,East,86,2.0,2.0,53,0.00,,FEW110,0.00,VWS V14.01,2013-02-23 16:40:00,
2013-02-23 10:49:00,32.7,17.0,30.15,ENE,76,1.0,5.0,52,0.00,,FEW110,0.00,VWS V14.01,2013-02-23 16:49:00,
2013-02-23 10:55:00,33.1,17.0,30.15,East,83,0.0,5.0,51,0.00,,FEW110,0.00,VWS V14.01,2013-02-23 16:55:00,
2013-02-23 11:01:00,33.8,17.6,30.15,SSE,165,0.0,2.0,51,0.00,,SCT120,0.00,VWS V14.01,2013-02-23 17:01:00,
2013-02-23 11:06:00,34.7,17.5,30.15,SSE,165,2.0,2.0,49,0.00,,SCT120,0.00,VWS V14.01,2013-02-23 17:06:00,
2013-02-23 11:11:00,35.0,17.8,30.15,South,181,0.0,2.0,49,0.00,,SCT120,0.00,VWS V14.01,2013-02-23 17:11:00,
2013-02-23 11:16:00,34.9,17.7,30.15,South,178,0.0,2.0,49,0.00,,SCT120,0.00,VWS V14.01,2013-02-23 17:16:00,
2013-02-23 11:21:00,34.6,17.4,30.15,South,178,1.0,2.0,49,0.00,,SCT120,0.00,VWS V14.01,2013-02-23 17:21:00,
2013-02-23 11:26:00,35.0,17.8,30.15,South,191,0.0,2.0,49,0.00,,SCT120,0.00,VWS V14.01,2013-02-23 17:26:00,
2013-02-23 11:31:00,35.6,17.9,30.15,South,171,2.0,3.0,48,0.00,,SCT120,0.00,VWS V14.01,2013-02-23 17:31:00,
2013-02-23 11:36:00,35.6,17.4,30.15,SSE,160,0.0,3.0,47,0.00,,SCT120,0.00,VWS V14.01,2013-02-23 17:36:00,
2013-02-23 11:41:00,35.8,17.6,30.15,South,184,2.0,5.0,47,0.00,,SCT120,0.00,VWS V14.01,2013-02-23 17:41:00,
2013-02-23 11:46:00,35.6,16.9,30.15,SSW,202,2.0,5.0,46,0.00,,SCT120,0.00,VWS V14.01,2013-02-23 17:46:00,
2013-02-23 11:51:00,35.5,17.3,30.15,SW,216,0.0,5.0,47,0.00,,SCT120,0.00,VWS V14.01,2013-02-23 17:51:00,
2013-02-23 11:56:00,35.5,16.3,30.15,West,265,1.0,5.0,45,0.00,,SCT120,0.00,VWS V14.01,2013-02-23 17:56:00,
2013-02-23 12:02:00,35.3,16.6,30.15,WSW,241,0.0,2.0,46,0.00,,SCT120,0.00,VWS V14.01,2013-02-23 18:02:00,
2013-02-23 12:11:00,35.3,17.1,30.15,WSW,239,0.0,7.0,47,0.00,,SCT120,0.00,VWS V14.01,2013-02-23 18:11:00,
2013-02-23 12:16:00,35.6,16.9,30.14,South,172,1.0,7.0,46,0.00,,SCT120,0.00,VWS V14.01,2013-02-23 18:16:00,
2013-02-23 12:22:00,36.3,16.0,30.14,SSW,210,2.0,7.0,43,0.00,,SCT120,0.00,VWS V14.01,2013-02-23 18:22:00,
2013-02-23 12:28:00,36.5,17.2,30.14,SSW,206,0.0,7.0,45,0.00,,SCT120,0.00,VWS V14.01,2013-02-23 18:28:00,
2013-02-23 12:35:00,37.0,17.6,30.13,West,277,0.0,7.0,45,0.00,,SCT120,0.00,VWS V14.01,2013-02-23 18:35:00,
2013-02-23 12:40:00,37.5,17.6,30.13,SSW,195,0.0,7.0,44,0.00,,SCT120,0.00,VWS V14.01,2013-02-23 18:40:00,
2013-02-23 12:46:00,37.8,17.9,30.12,SSW,198,1.0,7.0,44,0.00,,SCT120,0.00,VWS V14.01,2013-02-23 18:46:00,
2013-02-23 12:53:00,38.2,18.2,30.12,SSW,206,0.0,7.0,44,0.00,,SCT120,0.00,VWS V14.01,2013-02-23 18:53:00,
2013-02-23 12:58:00,38.6,18.6,30.12,SSW,210,0.0,7.0,44,0.00,,SCT120,0.00,VWS V14.01,2013-02-23 18:58:00,
2013-02-23 13:00:00,38.9,18.9,30.02,SSE,164,2.0,3.0,44,0.00,,OVC041CB,0.00,VWS V14.01,2013-02-23 19:00:00,
2013-02-23 13:03:00,38.9,18.9,30.11,ESE,109,0.0,3.0,44,0.00,,SCT120,0.00,VWS V14.01,2013-02-23 19:03:00,
2013-02-23 13:10:00,38.9,18.9,30.11,South,182,2.0,3.0,44,0.00,,SCT120,0.00,VWS V14.01,2013-02-23 19:10:00,
2013-02-23 13:15:00,38.9,18.9,30.08,South,182,2.0,3.0,44,0.00,,SCT120,0.00,VWS V14.01,2013-02-23 19:15:00,
2013-02-23 13:20:00,38.9,18.9,30.08,SSE,164,2.0,3.0,44,0.00,,SCT120,0.00,VWS V14.01,2013-02-23 19:20:00,
2013-02-23 13:25:00,38.9,18.9,30.08,SSE,164,2.0,3.0,44,0.00,,SCT120,0.00,VWS V14.01,2013-02-23 19:25:00,
2013-02-23 13:30:00,38.9,18.9,30.04,SSE,164,2.0,3.0,44,0.00,,SCT120,0.00,VWS V14.01,2013-02-23 19:30:00,
2013-02-23 13:35:00,38.9,18.9,30.04,SSE,164,2.0,3.0,44,0.00,,SCT120,0.00,VWS V14.01,2013-02-23 19:35:00,
2013-02-23 13:40:00,38.9,18.9,30.04,SSE,164,2.0,3.0,44,0.00,,SCT120,0.00,VWS V14.01,2013-02-23 19:40:00,
2013-02-23 13:45:00,38.9,18.9,30.03,SSE,164,2.0,3.0,44,0.00,,SCT120,0.00,VWS V14.01,2013-02-23 19:45:00,
2013-02-23 13:50:00,38.9,18.9,30.03,SSE,164,2.0,3.0,44,0.00,,SCT120,0.00,VWS V14.01,2013-02-23 19:50:00,
2013-02-23 13:55:00,38.9,18.9,30.03,SSE,164,2.0,3.0,44,0.00,,SCT120,0.00,VWS V14.01,2013-02-23 19:55:00,
2013-02-23 14:00:00,38.9,18.9,30.02,SSE,164,2.0,2.0,44,0.00,,SCT120,0.00,VWS V14.01,2013-02-23 20:00:00,
2013-02-23 14:05:00,38.9,18.9,30.02,SSE,164,2.0,2.0,44,0.00,,SCT110,0.00,VWS V14.01,2013-02-23 20:05:00,
2013-02-23 14:11:00,38.9,18.9,30.02,SSE,164,2.0,2.0,44,0.00,,SCT110,0.00,VWS V14.01,2013-02-23 20:11:00,
2013-02-23 14:16:00,38.9,18.9,30.02,SSE,164,2.0,2.0,44,0.00,,SCT110,0.00,VWS V14.01,2013-02-23 20:16:00,
2013-02-23 14:21:00,38.9,18.9,30.02,SSE,164,2.0,2.0,44,0.00,,SCT110,0.00,VWS V14.01,2013-02-23 20:21:00,
2013-02-23 14:26:00,38.9,18.9,30.02,SSE,164,2.0,2.0,44,0.00,,SCT110,0.00,VWS V14.01,2013-02-23 20:26:00,
2013-02-23 14:31:00,38.9,18.9,30.00,SSE,164,2.0,2.0,44,0.00,,SCT110,0.00,VWS V14.01,2013-02-23 20:31:00,
2013-02-23 14:36:00,38.9,18.9,30.00,SSE,164,2.0,2.0,44,0.00,,SCT110,0.00,VWS V14.01,2013-02-23 20:36:00,
2013-02-23 14:41:00,38.9,18.9,30.00,SSE,164,2.0,2.0,44,0.00,,SCT110,0.00,VWS V14.01,2013-02-23 20:41:00,
2013-02-23 14:46:00,38.9,18.9,30.00,SSE,164,2.0,2.0,44,0.00,,SCT110,0.00,VWS V14.01,2013-02-23 20:46:00,
2013-02-23 14:51:00,38.9,18.9,30.00,SSE,164,2.0,2.0,44,0.00,,SCT110,0.00,VWS V14.01,2013-02-23 20:51:00,
2013-02-23 14:56:00,38.9,18.9,30.00,SSE,164,2.0,2.0,44,0.00,,SCT110,0.00,VWS V14.01,2013-02-23 20:56:00,
2013-02-23 15:01:00,38.9,18.9,29.99,SSE,164,2.0,2.0,44,0.00,,CLR,0.00,VWS V14.01,2013-02-23 21:01:00,
2013-02-23 15:06:00,38.9,18.9,29.99,SSE,164,2.0,2.0,44,0.00,,CLR,0.00,VWS V14.01,2013-02-23 21:06:00,
2013-02-23 15:11:00,38.9,18.9,29.99,SSE,164,2.0,2.0,44,0.00,,CLR,0.00,VWS V14.01,2013-02-23 21:11:00,
2013-02-23 15:16:00,38.9,18.9,30.05,SSE,164,2.0,2.0,44,0.00,,CLR,0.00,VWS V14.01,2013-02-23 21:16:00,
2013-02-23 15:21:00,38.9,18.9,30.05,SSE,164,2.0,2.0,44,0.00,,CLR,0.00,VWS V14.01,2013-02-23 21:21:00,
2013-02-23 15:26:00,38.9,18.9,30.05,SSE,164,2.0,2.0,44,0.00,,CLR,0.00,VWS V14.01,2013-02-23 21:26:00,
2013-02-23 15:31:00,38.9,18.9,30.04,SSE,164,2.0,2.0,44,0.00,,CLR,0.00,VWS V14.01,2013-02-23 21:31:00,
2013-02-23 15:36:00,38.9,18.9,30.04,SSE,164,2.0,2.0,44,0.00,,CLR,0.00,VWS V14.01,2013-02-23 21:36:00,
2013-02-23 15:41:00,38.9,18.9,30.04,SSE,164,2.0,2.0,44,0.00,,CLR,0.00,VWS V14.01,2013-02-23 21:41:00,
2013-02-23 15:46:00,44.5,19.2,30.02,WNW,291,1.0,5.0,36,0.00,,CLR,0.00,VWS V14.01,2013-02-23 21:46:00,
2013-02-23 15:52:00,44.8,20.8,30.02,SSE,147,3.0,5.0,38,0.00,,CLR,0.00,VWS V14.01,2013-02-23 21:52:00,
2013-02-23 15:57:00,45.1,21.0,30.02,West,281,0.0,5.0,38,0.00,,CLR,0.00,VWS V14.01,2013-02-23 21:57:00,
2013-02-23 16:00:00,44.1,20.7,30.03,South,179,1.0,6.0,39,0.00,,OVC041CB,0.00,VWS V14.01,2013-02-23 22:00:00,
2013-02-23 16:02:00,45.2,21.1,30.02,West,278,2.0,2.0,38,0.00,,CLR,0.00,VWS V14.01,2013-02-23 22:02:00,
2013-02-23 16:07:00,45.4,20.7,30.02,West,277,0.0,2.0,37,0.00,,CLR,0.00,VWS V14.01,2013-02-23 22:07:00,
2013-02-23 16:12:00,45.5,21.4,30.02,West,281,3.0,6.0,38,0.00,,CLR,0.00,VWS V14.01,2013-02-23 22:12:00,
2013-02-23 16:17:00,45.1,21.0,30.02,WNW,299,1.0,6.0,38,0.00,,CLR,0.00,VWS V14.01,2013-02-23 22:17:00,
2013-02-23 16:22:00,44.1,20.7,30.02,NNE,24,0.0,6.0,39,0.00,,CLR,0.00,VWS V14.01,2013-02-23 22:22:00,
2013-02-23 16:27:00,44.3,20.9,30.02,NNE,16,0.0,6.0,39,0.00,,CLR,0.00,VWS V14.01,2013-02-23 22:27:00,
2013-02-23 16:32:00,44.6,21.2,30.02,West,267,0.0,6.0,39,0.00,,CLR,0.00,VWS V14.01,2013-02-23 22:32:00,
2013-02-23 16:37:00,44.6,20.6,30.02,SSW,200,2.0,6.0,38,0.00,,CLR,0.00,VWS V14.01,2013-02-23 22:37:00,
2013-02-23 16:42:00,44.5,20.5,30.02,South,175,0.0,6.0,38,0.00,,CLR,0.00,VWS V14.01,2013-02-23 22:42:00,
2013-02-23 16:47:00,44.2,20.8,30.03,South,175,0.0,6.0,39,0.00,,CLR,0.00,VWS V14.01,2013-02-23 22:47:00,
2013-02-23 16:52:00,44.2,20.8,30.03,South,178,0.0,6.0,39,0.00,,CLR,0.00,VWS V14.01,2013-02-23 22:52:00,
2013-02-23 16:57:00,44.2,20.8,30.03,South,179,0.0,6.0,39,0.00,,CLR,0.00,VWS V14.01,2013-02-23 22:57:00,
2013-02-23 17:02:00,44.1,20.7,30.03,South,179,0.0,1.0,39,0.00,,CLR,0.00,VWS V14.01,2013-02-23 23:02:00,
2013-02-23 17:07:00,44.1,20.7,30.03,South,179,0.0,1.0,39,0.00,,CLR,0.00,VWS V14.01,2013-02-23 23:07:00,
2013-02-23 17:13:00,43.6,20.3,30.03,South,178,2.0,2.0,39,0.00,,CLR,0.00,VWS V14.01,2013-02-23 23:13:00,
2013-02-23 17:18:00,43.2,20.5,30.01,ESE,112,2.0,2.0,40,0.00,,CLR,0.00,VWS V14.01,2013-02-23 23:18:00,
2013-02-23 17:23:00,42.9,20.3,30.01,ESE,112,0.0,2.0,40,0.00,,CLR,0.00,VWS V14.01,2013-02-23 23:23:00,
2013-02-23 17:28:00,42.9,20.3,30.01,ESE,110,0.0,2.0,40,0.00,,CLR,0.00,VWS V14.01,2013-02-23 23:28:00,
2013-02-23 17:33:00,42.9,20.3,30.01,ESE,110,0.0,2.0,40,0.00,,CLR,0.00,VWS V14.01,2013-02-23 23:33:00,
2013-02-23 17:38:00,43.3,20.0,30.01,ESE,112,0.0,2.0,39,0.00,,CLR,0.00,VWS V14.01,2013-02-23 23:38:00,
2013-02-23 17:43:00,43.3,20.0,30.01,ESE,112,0.0,2.0,39,0.00,,CLR,0.00,VWS V14.01,2013-02-23 23:43:00,
2013-02-23 17:48:00,43.1,19.8,30.02,ESE,112,1.0,2.0,39,0.00,,CLR,0.00,VWS V14.01,2013-02-23 23:48:00,
2013-02-23 17:53:00,42.6,21.1,30.02,ESE,112,0.0,2.0,42,0.00,,CLR,0.00,VWS V14.01,2013-02-23 23:53:00,
2013-02-23 17:58:00,42.3,20.9,30.02,ESE,112,0.0,2.0,42,0.00,,CLR,0.00,VWS V14.01,2013-02-23 23:58:00,
2013-02-23 18:03:00,42.3,20.9,30.02,ESE,112,0.0,0.0,42,0.00,,CLR,0.00,VWS V14.01,2013-02-24 00:03:00,
2013-02-23 18:08:00,42.1,20.7,30.02,ESE,112,0.0,0.0,42,0.00,,CLR,0.00,VWS V14.01,2013-02-24 00:08:00,
2013-02-23 18:13:00,41.9,21.0,30.02,ESE,112,0.0,0.0,43,0.00,,CLR,0.00,VWS V14.01,2013-02-24 00:13:00,
2013-02-23 18:18:00,41.6,20.8,30.02,ESE,112,0.0,0.0,43,0.00,,CLR,0.00,VWS V14.01,2013-02-24 00:18:00,
2013-02-23 18:23:00,41.5,20.7,30.02,ESE,112,0.0,0.0,43,0.00,,CLR,0.00,VWS V14.01,2013-02-24 00:23:00,
2013-02-23 18:28:00,41.1,21.4,30.02,ESE,112,0.0,0.0,45,0.00,,CLR,0.00,VWS V14.01,2013-02-24 00:28:00,
2013-02-23 18:33:00,40.8,22.1,30.03,ESE,112,0.0,0.0,47,0.00,,CLR,0.00,VWS V14.01,2013-02-24 00:33:00,
2013-02-23 18:38:00,40.6,21.5,30.03,East,95,1.0,3.0,46,0.00,,CLR,0.00,VWS V14.01,2013-02-24 00:38:00,
2013-02-23 18:43:00,40.8,22.1,30.03,East,92,0.0,3.0,47,0.00,,CLR,0.00,VWS V14.01,2013-02-24 00:43:00,
2013-02-23 18:49:00,40.5,21.9,30.03,East,86,2.0,3.0,47,0.00,,CLR,0.00,VWS V14.01,2013-02-24 00:49:00,
2013-02-23 18:54:00,40.2,22.6,30.03,East,82,2.0,3.0,49,0.00,,CLR,0.00,VWS V14.01,2013-02-24 00:54:00,
2013-02-23 18:59:00,39.9,22.8,30.03,East,82,1.0,3.0,50,0.00,,CLR,0.00,VWS V14.01,2013-02-24 00:59:00,
2013-02-23 19:04:00,39.3,23.2,30.03,East,82,1.0,2.0,52,0.00,,CLR,0.00,VWS V14.01,2013-02-24 01:04:00,
2013-02-23 19:09:00,39.1,22.5,30.03,East,79,2.0,5.0,51,0.00,,CLR,0.00,VWS V14.01,2013-02-24 01:09:00,
2013-02-23 19:14:00,39.2,22.1,30.03,East,79,2.0,7.0,50,0.00,,CLR,0.00,VWS V14.01,2013-02-24 01:14:00,
2013-02-23 19:19:00,39.2,23.1,30.02,East,83,1.0,7.0,52,0.00,,CLR,0.00,VWS V14.01,2013-02-24 01:19:00,
2013-02-23 19:24:00,38.8,23.1,30.02,East,79,5.0,7.0,53,0.00,,CLR,0.00,VWS V14.01,2013-02-24 01:24:00,
2013-02-23 19:29:00,38.5,22.9,30.02,East,85,2.0,7.0,53,0.00,,CLR,0.00,VWS V14.01,2013-02-24 01:29:00,
2013-02-23 19:34:00,38.3,23.1,30.02,East,83,2.0,7.0,54,0.00,,CLR,0.00,VWS V14.01,2013-02-24 01:34:00,
2013-02-23 19:39:00,37.9,23.2,30.02,East,86,1.0,7.0,55,0.00,,CLR,0.00,VWS V14.01,2013-02-24 01:39:00,
2013-02-23 19:44:00,37.9,23.2,30.02,East,82,5.0,7.0,55,0.00,,CLR,0.00,VWS V14.01,2013-02-24 01:44:00,
2013-02-23 19:49:00,37.9,22.8,30.02,East,85,2.0,7.0,54,0.00,,CLR,0.00,VWS V14.01,2013-02-24 01:49:00,
2013-02-23 19:54:00,37.6,22.9,30.02,East,89,2.0,7.0,55,0.00,,CLR,0.00,VWS V14.01,2013-02-24 01:54:00,
2013-02-23 19:59:00,37.8,23.1,30.01,ENE,73,2.0,7.0,55,0.00,,CLR,0.00,VWS V14.01,2013-02-24 01:59:00,
2013-02-23 20:04:00,38.0,22.9,30.01,ENE,78,2.0,5.0,54,0.00,,CLR,0.00,VWS V14.01,2013-02-24 02:04:00,
2013-02-23 20:09:00,37.8,22.7,30.01,East,83,0.0,5.0,54,0.00,,CLR,0.00,VWS V14.01,2013-02-24 02:09:00,
2013-02-23 20:15:00,37.3,22.6,30.02,East,80,0.0,5.0,55,0.00,,CLR,0.00,VWS V14.01,2013-02-24 02:15:00,
2013-02-23 20:20:00,37.0,22.8,30.02,East,80,0.0,5.0,56,0.00,,CLR,0.00,VWS V14.01,2013-02-24 02:20:00,
2013-02-23 20:25:00,36.8,23.0,30.02,East,80,1.0,5.0,57,0.00,,CLR,0.00,VWS V14.01,2013-02-24 02:25:00,
2013-02-23 20:30:00,36.8,22.6,30.02,East,80,0.0,5.0,56,0.00,,CLR,0.00,VWS V14.01,2013-02-24 02:30:00,
2013-02-23 20:35:00,36.8,22.6,30.02,East,80,0.0,5.0,56,0.00,,CLR,0.00,VWS V14.01,2013-02-24 02:35:00,
2013-02-23 20:40:00,36.8,22.6,30.02,East,80,0.0,5.0,56,0.00,,CLR,0.00,VWS V14.01,2013-02-24 02:40:00,
2013-02-23 20:45:00,36.5,22.7,30.02,East,80,0.0,5.0,57,0.00,,CLR,0.00,VWS V14.01,2013-02-24 02:45:00,
2013-02-23 20:50:00,36.8,22.6,30.02,East,83,0.0,5.0,56,0.00,,CLR,0.00,VWS V14.01,2013-02-24 02:50:00,
2013-02-23 20:55:00,36.8,23.0,30.02,East,82,1.0,5.0,57,0.00,,CLR,0.00,VWS V14.01,2013-02-24 02:55:00,
2013-02-23 21:00:00,37.0,22.8,30.02,East,85,0.0,5.0,56,0.00,,CLR,0.00,VWS V14.01,2013-02-24 03:00:00,
2013-02-23 21:05:00,36.9,23.1,30.02,East,85,0.0,0.0,57,0.00,,CLR,0.00,VWS V14.01,2013-02-24 03:05:00,
2013-02-23 21:10:00,37.0,23.2,30.02,East,85,0.0,1.0,57,0.00,,CLR,0.00,VWS V14.01,2013-02-24 03:10:00,
2013-02-23 21:15:00,37.2,23.4,30.03,East,85,0.0,1.0,57,0.00,,CLR,0.00,VWS V14.01,2013-02-24 03:15:00,
2013-02-23 21:20:00,37.2,23.0,30.03,East,99,0.0,2.0,56,0.00,,CLR,0.00,VWS V14.01,2013-02-24 03:20:00,
2013-02-23 21:25:00,37.3,23.1,30.03,ESE,104,0.0,2.0,56,0.00,,CLR,0.00,VWS V14.01,2013-02-24 03:25:00,
2013-02-23 21:31:00,37.5,22.8,30.03,ESE,104,0.0,2.0,55,0.00,,CLR,0.00,VWS V14.01,2013-02-24 03:31:00,
2013-02-23 21:36:00,37.3,22.6,30.03,ESE,107,0.0,2.0,55,0.00,,CLR,0.00,VWS V14.01,2013-02-24 03:36:00,
2013-02-23 21:41:00,37.3,22.6,30.03,ESE,107,0.0,2.0,55,0.00,,CLR,0.00,VWS V14.01,2013-02-24 03:41:00,
2013-02-23 21:46:00,36.8,23.0,30.02,ESE,103,0.0,2.0,57,0.00,,CLR,0.00,VWS V14.01,2013-02-24 03:46:00,
2013-02-23 21:51:00,36.6,22.8,30.02,ESE,103,0.0,2.0,57,0.00,,CLR,0.00,VWS V14.01,2013-02-24 03:51:00,
2013-02-23 21:56:00,36.5,22.7,30.02,ESE,103,0.0,2.0,57,0.00,,CLR,0.00,VWS V14.01,2013-02-24 03:56:00,
2013-02-23 22:01:00,36.2,22.9,30.02,East,97,0.0,2.0,58,0.00,,CLR,0.00,VWS V14.01,2013-02-24 04:01:00,
2013-02-23 22:06:00,36.0,22.7,30.02,East,97,0.0,2.0,58,0.00,,CLR,0.00,VWS V14.01,2013-02-24 04:06:00,
2013-02-23 22:11:00,35.8,22.9,30.02,East,92,2.0,2.0,59,0.00,,CLR,0.00,VWS V14.01,2013-02-24 04:11:00,
2013-02-23 22:16:00,35.8,22.9,30.01,East,89,2.0,5.0,59,0.00,,CLR,0.00,VWS V14.01,2013-02-24 04:16:00,
2013-02-23 22:21:00,36.0,23.1,30.01,East,85,2.0,5.0,59,0.00,,CLR,0.00,VWS V14.01,2013-02-24 04:21:00,
2013-02-23 22:26:00,36.0,22.7,30.01,East,93,5.0,5.0,58,0.00,,CLR,0.00,VWS V14.01,2013-02-24 04:26:00,
2013-02-23 22:31:00,36.0,23.1,30.02,East,79,3.0,5.0,59,0.00,,CLR,0.00,VWS V14.01,2013-02-24 04:31:00,
2013-02-23 22:36:00,36.0,23.5,30.02,East,86,0.0,5.0,60,0.00,,CLR,0.00,VWS V14.01,2013-02-24 04:36:00,
2013-02-23 22:41:00,36.0,23.1,30.02,East,83,1.0,5.0,59,0.00,,CLR,0.00,VWS V14.01,2013-02-24 04:41:00,
2013-02-23 22:46:00,36.0,23.1,30.02,East,85,0.0,5.0,59,0.00,,CLR,0.00,VWS V14.01,2013-02-24 04:46:00,
2013-02-23 22:52:00,35.9,23.0,30.02,East,86,1.0,5.0,59,0.00,,CLR,0.00,VWS V14.01,2013-02-24 04:52:00,
2013-02-23 22:57:00,35.8,22.9,30.02,East,88,0.0,5.0,59,0.00,,CLR,0.00,VWS V14.01,2013-02-24 04:57:00,
2013-02-23 23:00:00,35.8,22.9,30.02,East,86,0.0,5.0,59,0.00,,CLR,0.00,VWS V14.01,2013-02-24 05:00:00,
2013-02-23 23:02:00,35.9,23.0,30.02,East,85,1.0,2.0,59,0.00,,CLR,0.00,VWS V14.01,2013-02-24 05:02:00,
2013-02-23 23:03:00,35.9,23.0,30.02,East,85,2.0,2.0,59,0.00,,CLR,0.00,VWS V14.01,2013-02-24 05:03:00,
2013-02-23 23:08:00,36.2,22.0,30.02,East,85,3.0,5.0,56,0.00,,CLR,0.00,VWS V14.01,2013-02-24 05:08:00,
2013-02-23 23:13:00,36.3,23.0,30.02,ENE,76,5.0,5.0,58,0.00,,CLR,0.00,VWS V14.01,2013-02-24 05:13:00,
2013-02-23 23:18:00,36.5,22.7,30.01,ENE,78,5.0,7.0,57,0.00,,CLR,0.00,VWS V14.01,2013-02-24 05:18:00,
2013-02-23 23:23:00,36.5,22.7,30.01,ENE,76,2.0,7.0,57,0.00,,CLR,0.00,VWS V14.01,2013-02-24 05:23:00,
2013-02-23 23:28:00,36.6,22.8,30.01,ENE,72,5.0,7.0,57,0.00,,CLR,0.00,VWS V14.01,2013-02-24 05:28:00,
2013-02-23 23:33:00,36.5,22.3,30.01,ENE,72,3.0,7.0,56,0.00,,CLR,0.00,VWS V14.01,2013-02-24 05:33:00,
2013-02-23 23:39:00,36.2,23.3,30.01,East,80,3.0,7.0,59,0.00,,CLR,0.00,VWS V14.01,2013-02-24 05:39:00,
2013-02-23 23:44:00,35.9,23.0,30.01,ENE,78,2.0,7.0,59,0.00,,CLR,0.00,VWS V14.01,2013-02-24 05:44:00,
2013-02-23 23:49:00,35.6,22.7,30.02,East,95,5.0,7.0,59,0.00,,CLR,0.00,VWS V14.01,2013-02-24 05:49:00,
2013-02-23 23:54:00,35.5,22.6,30.02,East,85,1.0,7.0,59,0.00,,CLR,0.00,VWS V14.01,2013-02-24 05:54:00,
2013-02-23 23:59:00,35.2,22.7,30.02,East,86,2.0,7.0,60,0.00,,CLR,0.00,VWS V14.01,2013-02-24 05:59:00,